Location: Champaign/Urbana Astronomical Society Observatory
(40.0333°N, 88.2833°W)
Time: 17:57:56
(UTC-05:00)

AO-7 - Visible Passes

Search period start: 21 May 2019 00:00
Search period end: 31 May 2019 00:00
Orbit: 1439 x 1459 km, 101.7° (Epoch: 21 May)

Date Brightness Start Highest point End Pass type
(mag) Time Alt. Az. Time Alt. Az. Time Alt. Az.
21 May ? 04:18:09 10° NNE 04:26:25 62° ESE 04:34:38 10° S visible
22 May ? 03:19:20 10° NE 03:26:01 26° E 03:32:39 10° SSE visible
23 May ? 04:11:12 10° NNE 04:19:23 57° ESE 04:27:32 10° S visible
24 May ? 03:12:37 10° NE 03:18:55 23° E 03:25:11 10° SE visible
25 May ? 04:04:16 10° NNE 04:12:21 51° ESE 04:20:23 10° S visible
26 May ? 03:05:56 10° NE 03:11:49 21° E 03:17:40 10° SE visible
26 May ? 04:56:59 10° NNE 05:05:20 80° WNW 05:13:41 10° SSW visible
27 May ? 03:57:21 10° NNE 04:05:19 46° E 04:13:13 10° S visible
28 May ? 02:59:19 10° NE 03:04:42 18° E 03:10:03 10° SE visible
28 May ? 04:49:58 10° NNE 04:58:21 87° WNW 05:06:44 10° SSW visible
29 May ? 03:50:27 10° NNE 03:58:16 42° E 04:06:01 10° SSE visible
30 May ? 02:52:48 10° NE 02:57:35 16° E 03:02:20 10° SE visible
30 May ? 04:42:58 10° NNE 04:51:22 86° ESE 04:59:44 10° SSW visible
